Location: Nuaill�-d�Aunis
(46.2242°N, 0.9297°W)
Time: 03:40:45
(UTC+00:00)

Daily predictions for brighter satellites

Satellite Brightness Start Highest point End
(mag) Time Altitude Azimuth Time Altitude Azimuth Time Altitude Azimuth
Cosmos 2082 Rocket 4.3 03:22:45 20° SE 03:24:30 23° E 03:28:50 10° NE
CZ-4C R/B 3.9 03:40:02 26° NNE 03:40:02 26° NNE 03:43:00 10° NNE
Cosmos 1833 Rocket 3.6 03:46:05 45° E 03:46:05 45° E 03:50:52 10° NE
Cosmos 2123 Rocket 4.3 03:46:46 10° N 03:52:55 63° ENE 03:59:03 10° SSE
Lacrosse 5 3.1 03:56:32 37° ESE 03:56:32 37° ESE 04:00:39 10° ENE
ATLAS 2AS CENTAUR R/B 4.3 03:53:43 22° NNW 03:57:15 30° NNE 04:03:38 10° E
IDEFIX/ARIANE 42P 4.4 03:52:13 10° NNE 03:54:04 22° NNE 03:54:04 22° NNE
CZ-2C R/B 3.8 03:54:34 10° NNE 03:59:07 36° E 04:01:55 19° SSE
Cosmos 1980 Rocket 3.1 04:02:33 36° NNE 04:04:13 46° ENE 04:09:41 10° SE
Cosmos 2221 4.5 04:09:03 23° SE 04:09:03 23° SE 04:10:49 10° SSE
SL-4 R/B 3.5 04:17:16 38° NNE 04:17:16 38° NNE 04:20:55 10° ENE
Cosmos 2369 3.8 04:22:39 61° S 04:22:39 61° S 04:27:26 10° SSE
Meteor 1-31 Rocket 3.7 04:24:46 10° NNE 04:28:09 45° E 04:28:09 45° E
Meteor 1-27 4.2 04:24:45 15° N 04:29:40 89° E 04:35:32 10° S
Cosmos 1535 Rocket 4.3 04:28:40 54° SW 04:30:06 73° W 04:36:17 10° N
USA 234 4.2 04:24:37 10° ENE 04:30:23 35° N 04:32:17 29° NNW
SJ 16-02 3.5 04:27:13 10° SSE 04:30:53 26° E 04:34:33 10° NE
COSMOS 2455 4.3 04:27:07 16° NNW 04:31:12 33° NE 04:36:34 10° ESE
Cosmos 2360 4.1 04:31:12 50° NNW 04:32:49 86° ENE 04:38:33 10° SSE
PAYLOAD A 4.0 04:27:33 10° NNE 04:32:54 90° ESE 04:35:55 27° SSW
Cosmos 1869 4.3 04:33:50 29° NNE 04:35:21 44° ENE 04:39:06 10° SSE
Cosmos 2112 Rocket 4.3 04:34:37 28° N 04:37:28 67° ENE 04:42:45 10° SSE
MSX 3.7 04:32:44 10° N 04:38:28 68° WNW 04:39:48 51° SW
COBE Rocket 4.3 04:36:25 10° SSE 04:41:32 66° ENE 04:46:35 10° N
Okean O Rocket 4.4 04:38:38 10° NE 04:41:39 18° E 04:44:41 10° SE
Cosmos 2278 3.6 04:41:05 57° WNW 04:42:07 71° WSW 04:47:47 10° SSE
Cosmos 1697 Rocket 2.8 04:45:10 52° SW 04:45:10 52° SW 04:50:14 10° S
Cosmos 1680 Rocket 3.4 04:43:02 36° NNW 04:45:19 88° ENE 04:50:38 10° SSE
STARLINK-29 4.2 04:46:54 42° NE 04:46:54 42° NE 04:49:21 10° ENE
H-2A R/B 3.2 04:44:17 10° N 04:47:32 44° NNW 04:47:32 44° NNW
ALOS 4.3 04:47:08 10° NE 04:51:12 29° E 04:55:14 10° SSE
COSMOS 2406 4.2 04:54:42 30° NW 04:54:42 30° NW 04:58:57 10° N
STARLINK-60 4.2 04:55:29 37° NNE 04:55:29 37° NNE 04:57:50 10° NE
SL-27 R/B 3.2 04:57:13 16° S 04:59:37 48° ESE 05:02:51 10° NNE
Meteor 1-11 4.4 04:58:06 37° WSW 04:59:50 49° WNW 05:05:28 10° N
FALCON 9 DEB 3.6 05:04:14 50° N 05:04:14 50° N 05:07:12 10° NE
Cosmos 158 Rocket 4.0 04:59:50 15° NNW 05:03:59 72° ENE 05:08:52 10° SSE
PSLV R/B 4.0 05:02:55 10° NNE 05:06:45 69° ESE 05:10:38 10° S
Cosmos 990 Rocket 4.3 05:02:28 10° S 05:07:35 69° ESE 05:12:45 10° NNE
Cosmos 2082 Rocket 2.2 05:04:43 25° SW 05:08:06 61° WNW 05:13:48 10° NNE
Cosmos 2084 Rocket 3.8 05:08:57 44° NW 05:09:13 44° NW 05:13:30 10° NNE
Cosmos 923 Rocket 4.2 05:08:11 39° WNW 05:09:13 45° WSW 05:14:11 10° S
CZ-4B R/B 4.1 05:05:06 10° N 05:09:31 62° WNW 05:13:57 10° SSW
Cosmos 1934 Rocket 4.4 05:07:10 28° WSW 05:09:43 39° WNW 05:15:39 10° N
deb Kosmos-1763 4.1 05:08:12 10° SSW 05:11:54 77° ESE 05:15:37 10° NNE
SKYMED 2 3.6 05:07:43 10° SSE 05:12:03 81° ENE 05:16:25 10° NNW
Cosmos 2100 Rocket 4.3 05:08:16 10° S 05:14:25 69° E 05:20:33 10° NNE
Helios 1A Rocket 4.4 05:12:35 10° NNE 05:16:28 39° E 05:20:19 10° S
NOSS 3-3 (A) 4.1 05:12:20 10° SSW 05:18:12 75° SE 05:24:50 10° NE
NOSS 3-3 (C) 4.1 05:12:27 10° SSW 05:18:19 75° SE 05:24:56 10° NE
Cosmos 839 Rocket 4.1 05:15:33 10° SW 05:22:42 64° NW 05:28:55 10° NNE
Cosmos 967 Rocket 4.5 05:20:47 11° SW 05:26:56 65° NW 05:33:21 10° NNE
CZ-4C R/B 3.9 05:25:13 16° NW 05:27:19 19° NNW 05:31:55 10° NNE
Lacrosse 5 rocket 3.1 05:26:44 14° NNW 05:27:44 15° N 05:29:56 10° NE
Cosmos 1151 Rocket 4.1 05:23:52 10° N 05:28:07 47° ENE 05:32:20 10° SSE
Cosmos 1833 Rocket 3.4 05:27:50 26° W 05:29:37 32° NW 05:34:37 10° N
Cosmos 1076 Rocket 3.9 05:27:06 10° SW 05:31:12 40° WNW 05:35:19 10° N
Cosmos 2058 3.0 05:27:52 10° SSW 05:31:58 50° WNW 05:36:05 10° N
Cosmos 1898 Rocket 3.4 05:27:39 10° SSW 05:32:52 71° WNW 05:38:09 10° NNE
Cosmos 2061 Rocket 4.4 05:28:44 10° S 05:34:56 67° E 05:41:06 10° NNE
IDEFIX/ARIANE 42P 4.3 05:33:21 10° NNW 05:34:52 14° NW 05:34:52 14° NW
CZ-2C R/B 3.1 05:32:58 10° N 05:37:14 30° WNW 05:41:16 11° SW
CZ-4B R/B 3.5 05:35:08 10° N 05:38:15 28° WNW 05:38:16 27° WNW
Meteor 2-20 Rocket 4.4 05:32:27 10° NNW 05:38:34 65° W 05:44:39 10° S
Lacrosse 5 2.1 05:35:47 22° W 05:38:51 51° NNW 05:43:49 10° NE
ASTEX 1 4.1 05:34:48 10° SSW 05:39:13 32° W 05:43:40 10° NNW
SL-16 R/B 2.4 05:33:41 10° NNW 05:39:24 77° ENE 05:45:04 10° SSE
Cosmos 2360 Rocket 3.5 05:36:57 10° NNW 05:42:17 39° NE 05:47:34 10° ESE
Cosmos 1408 Rocket 4.1 05:38:33 10° S 05:42:47 61° E 05:47:04 10° NNE
Okean 3 Rocket 3.6 05:41:24 10° SSW 05:45:53 63° W 05:50:23 10° N
Cosmos 1937 Rocket 3.4 05:41:44 10° SSW 05:46:52 73° WNW 05:52:02 10° NNE
Cosmos 1356 Rocket 4.3 05:44:19 14° NW 05:47:18 29° W 05:51:01 10° SSW
STARLINK-43 3.2 05:44:34 17° WSW 05:47:22 81° NNW 05:51:07 10° ENE
Cosmos 1980 Rocket 3.0 05:44:23 16° NW 05:48:02 31° WSW 05:52:56 10° SSW
ATLAS 2AS CENTAUR R/B 3.0 05:41:42 10° NW 05:49:29 79° NE 05:56:35 10° SE
Cosmos 2322 Rocket 2.3 05:44:57 10° NNW 05:50:39 80° ENE 05:56:20 10° SSE
SJ-12 4.0 05:47:23 10° N 05:51:28 55° WNW 05:55:31 10° SSW
NOAA 6 4.1 05:47:55 10° NNE 05:53:05 85° ESE 05:58:12 10° SSW
STARLINK-67 4.1 05:51:52 17° NNW 05:53:13 25° NNE 05:55:29 10° ENE
Cosmos 2173 Rocket 4.0 05:47:07 10° SSW 05:53:22 68° W 05:59:35 10° N
Cosmos 1766 Rocket 3.4 05:49:56 10° SSW 05:54:13 66° W 05:58:33 10° N
SL-4 R/B 2.8 05:52:53 16° WNW 05:56:37 57° NNE 06:01:21 10° E
COSMO-SKYMED 1 3.3 05:56:17 10° SSW 06:00:10 32° W 06:04:06 10° NNW
Meteor 1-31 Rocket 4.3 06:00:13 10° NNW 06:02:34 16° WNW 06:03:30 15° W
Gbstr 26 Del rocket 2.6 06:03:41 10° WSW 06:07:29 69° NNW 06:11:15 10° ENE
STARLINK-52 4.2 06:06:22 15° WNW 06:08:52 32° NNW 06:12:05 10° NE
SJ 16-02 2.0 06:05:22 10° SW 06:09:20 33° WNW 06:13:20 10° N
Cosmos 1400 Rocket 4.1 06:05:36 10° N 06:09:33 43° ENE 06:13:25 10° SSE
Cosmos 1484 Rocket 3.8 06:06:37 10° NNW 06:09:56 26° WNW 06:13:16 10° SW
USA 234 3.8 06:06:21 10° E 06:12:37 50° NNE 06:18:53 10° NW
Shenzhou-11 Module 2.9 06:10:45 11° WSW 06:13:09 35° S 06:15:41 10° ESE
Cosmos 2333 Rocket 4.0 06:10:34 10° N 06:15:32 29° NE 06:20:30 10° ESE
Cosmos 2228 Rocket 3.6 06:11:49 10° N 06:16:25 68° E 06:20:58 10° SSE
COSMOS 2455 3.0 06:11:33 10° NW 06:17:27 57° WSW 06:23:17 10° SSE
Okean O Rocket 1.8 06:14:06 10° N 06:18:17 47° WNW 06:22:26 10° SW
CZ-4B R/B 3.2 06:13:33 10° N 06:18:50 61° WNW 06:24:11 10° SSW
Cosmos 2151 3.6 06:14:59 10° SW 06:18:54 34° WNW 06:22:52 10° N
Cosmos 1606 2.7 06:18:13 10° N 06:22:02 84° E 06:25:50 10° S
Cosmos 1892 3.7 06:19:42 10° SW 06:22:49 24° WNW 06:25:56 10° NNW
STARLINK-29 4.4 06:20:23 10° WNW 06:23:27 28° N 06:26:31 10° NE
ATLAS CENTAUR R/B 2.4 06:18:39 10° SSW 06:23:31 64° ESE 06:28:17 10° NE
Cosmos 2298 Rocket 4.0 06:19:31 10° SSW 06:24:50 76° WNW 06:30:10 10° NNE
Cosmos 1408 3.1 06:24:13 10° SW 06:27:41 38° WNW 06:31:09 10° N
ALOS 2.9 06:24:25 10° N 06:28:39 34° WNW 06:32:51 10° SW
FENGYUN 3A 4.0 06:24:53 10° N 06:29:58 42° WNW 06:35:01 10° SW
STARLINK-60 4.5 06:28:56 10° WNW 06:31:49 25° N 06:34:41 10° NE
Cosmos 2219 Rocket 3.6 06:30:35 10° NNW 06:35:47 36° NE 06:40:59 10° ESE
